Home   Weather   Tønsberg   Past weeks

Flag for Norway Past Weather in Tønsberg, Norway — Yesterday and Last 2 Weeks

Now
48 °F

Passing clouds.


Feels Like: 40 °F
Forecast: 36 / 45 °F
Wind: 26 mph from Southwest

Location: Oseberg

Current Time: Jan 18, 2017 at 2:57:10 am

Latest Report: Jan 18, 2017 at 1:50 am


Visibility: N/A

Pressure: 30.30 "Hg

Humidity: 94%

Dew Point: 46 °F

Location of TønsbergLocation

Past Weather in Tønsberg — Graph

°F

Tønsberg Temperature Yesterday

Maximum temperature yesterday: 48 °F (at 11:50 am)
Minimum temperature yesterday: 46 °F (at 12:50 am)
Average temperature yesterday: 47 °F

High & Low Weather Summary for the Past Weeks

 TemperatureHumidityPressure
High48 °F (Jan 6, 3:50 pm)100% (Jan 3, 7:50 pm)30.48 "Hg (Jan 3, 7:50 pm)
Low30 °F (Jan 14, 7:20 am)33% (Jan 5, 7:20 am)28.62 "Hg (Jan 11, 6:50 am)
Average42 °F78%29.74 "Hg
* Reported Jan 3 1:50 am — Jan 18 1:50 am, Tønsberg, Weather by CustomWeather, © 2017

Note: Actual official high and low records may vary slightly from our data, if they occured in-between our weather recording intervals... More about our weather records

Advertising

Tønsberg Weather History for the Previous 24 Hours

Scroll right to see more
 ConditionsComfort  
Time TempWeatherWind HumidityBarometerVisibility
1:50 am
Wed, Jan 18
48 °FPassing clouds.26 mph94%30.30 "HgN/A
12:50 am48 °FPartly cloudy.28 mph100%30.33 "HgN/A
11:50 pm
Tue, Jan 17
48 °FPassing clouds.28 mph100%30.33 "HgN/A
10:50 pm48 °FPassing clouds.25 mph94%30.33 "HgN/A
9:50 pm48 °FPassing clouds.17 mph94%30.33 "HgN/A
9:20 pm46 °FPassing clouds.21 mph100%30.33 "HgN/A
8:20 pm46 °FPartly cloudy.22 mph57%30.30 "HgN/A
7:50 pm48 °FDrizzle. Fog.21 mph100%30.30 "Hg0 mi
6:50 pm48 °FDrizzle. Fog.18 mph100%30.30 "Hg0 mi
6:18 pm48 °FDrizzle. Fog.20 mph100%30.27 "Hg1 mi
5:50 pm48 °FDrizzle. Fog.20 mph100%30.30 "Hg0 mi
5:20 pm48 °FDrizzle. Fog.18 mph100%30.27 "Hg0 mi
4:50 pm48 °FFog.20 mph100%30.30 "Hg0 mi
4:20 pm48 °FDrizzle. Fog.22 mph100%30.27 "Hg0 mi
3:50 pm48 °FDrizzle. Fog.22 mph100%30.27 "Hg0 mi
3:20 pm48 °FFog.22 mph100%30.27 "Hg0 mi
2:50 pm48 °FFog.22 mph100%30.27 "Hg0 mi
2:20 pm48 °FFog.23 mph100%30.27 "Hg0 mi
1:50 pm48 °FFog.25 mph100%30.27 "Hg0 mi
1:20 pm48 °FDrizzle. Fog.24 mph100%30.27 "Hg1 mi
12:50 pm48 °FDrizzle. Fog.24 mph100%30.27 "Hg1 mi
12:20 pm48 °FDrizzle. Fog.25 mph100%30.27 "Hg1 mi
11:50 am48 °FDrizzle. Fog.25 mph100%30.27 "Hg1 mi
11:20 am46 °FLight rain. Fog.25 mph100%30.27 "Hg1 mi
10:50 am46 °FDrizzle. Fog.25 mph100%30.27 "Hg1 mi
10:20 am46 °FDrizzle. Fog.24 mph100%30.24 "Hg1 mi
9:50 am46 °FDrizzle. Fog.26 mph100%30.24 "Hg1 mi
9:20 am46 °FDrizzle. Fog.26 mph100%30.24 "Hg1 mi
8:50 am46 °FDrizzle. Fog.25 mph100%30.24 "Hg1 mi
8:22 am46 °FDrizzle. Fog.24 mph100%30.24 "Hg1 mi
7:50 am46 °FDrizzle. Fog.24 mph100%30.27 "Hg1 mi
7:20 am46 °FDrizzle. Fog.24 mph100%30.36 "Hg1 mi
6:50 am46 °FDrizzle. Fog.26 mph100%30.33 "Hg1 mi
6:20 am46 °FDrizzle. Fog.25 mph100%30.33 "Hg1 mi
5:50 am46 °FLight rain. Fog.25 mph100%30.33 "Hg1 mi
4:50 am46 °FLight rain. Fog.26 mph100%30.33 "Hg1 mi
3:50 am46 °FLight rain. Fog.28 mph100%30.30 "Hg2 mi
2:50 am46 °FLight rain. Fog.29 mph100%30.30 "Hg2 mi
Weather by CustomWeather, © 2017

See weather overviewHow to use our weather pages